User: anonymous   Login
Location: Hancock Field Station
(44.9202°N, 120.4259°W)
Time: 19:48:01
(UTC-08:00)
Language:

Nadezhda 4 Rocket - Orbit

View from above orbital plane
View from above orbital plane
View from above satellite
View from above satellite

Ground track
Ground track

The orbit data is extracted from the following two-line orbital elements,

1 23180U 94041B   15023.58945112  .00000152  00000-0  13562-3 0  6117
2 23180 082.9434 222.5604 0029689 157.5923 255.7862 13.77866126 32325
Epoch (UTC): 23 January 2015 14:08:48
Eccentricity: 0.0029689
inclination: 82.9434°
perigee height: 949 km
apogee height: 993 km
right ascension of ascending node: 222.5604°
argument of perigee: 157.5923°
revolutions per day: 13.77866126
mean anomaly at epoch: 255.7862°
orbit number at epoch: 3232

The dashed part of the orbit path shows where the satellite is in the earth's shadow,  

DLR